Satellite: NOAA-11
Catalog number: 19531
Epoch time:      06131.30281969
Element set:     114
Inclination:      098.8249 deg
RA of node:       220.1177 deg
Eccentricity:    0.0012495
Arg of perigee:   094.5530 deg
Mean anomaly:     265.7093 deg
Mean motion:   14.14797269 rev/day
Decay rate:       1.58e-06 rev/day^2
Epoch rev:           90932
Checksum:              312

Satellite: NOAA-12
Catalog number: 21263
Epoch time:      06131.46573622
Element set:     607
Inclination:      098.7285 deg
RA of node:       124.9072 deg
Eccentricity:    0.0012467
Arg of perigee:   190.9916 deg
Mean anomaly:     169.1013 deg
Mean motion:   14.25487746 rev/day
Decay rate:      -1.60e-06 rev/day^2
Epoch rev:           77901
Checksum:              306

Satellite: MET-3/5
Catalog number: 21655
Epoch time:      06130.53289433
Element set:    0102
Inclination:      082.5531 deg
RA of node:       287.3947 deg
Eccentricity:    0.0014073
Arg of perigee:   131.7384 deg
Mean anomaly:     228.4962 deg
Mean motion:   13.17007216 rev/day
Decay rate:        5.1e-07 rev/day^2
Epoch rev:           70840
Checksum:              280

Satellite: MET-2/21
Catalog number: 22782
Epoch time:      06130.71732993
Element set:     502
Inclination:      082.5505 deg
RA of node:       001.1821 deg
Eccentricity:    0.0020813
Arg of perigee:   286.7281 deg
Mean anomaly:     073.1592 deg
Mean motion:   13.83604008 rev/day
Decay rate:        9.0e-08 rev/day^2
Epoch rev:           64086
Checksum:              275

Satellite: OKEAN-4
Catalog number: 23317
Epoch time:      06131.76750502
Element set:     939
Inclination:      082.5380 deg
RA of node:       310.9757 deg
Eccentricity:    0.0023516
Arg of perigee:   131.8683 deg
Mean anomaly:     228.4514 deg
Mean motion:   14.82353258 rev/day
Decay rate:       4.02e-06 rev/day^2
Epoch rev:           62458
Checksum:              297

Satellite: NOAA-14
Catalog number: 23455
Epoch time:      06131.42416310
Element set:     114
Inclination:      099.0409 deg
RA of node:       189.2983 deg
Eccentricity:    0.0009882
Arg of perigee:   150.8630 deg
Mean anomaly:     209.3112 deg
Mean motion:   14.13658001 rev/day
Decay rate:       3.57e-06 rev/day^2
Epoch rev:           58587
Checksum:              288

Satellite: SICH-1
Catalog number: 23657
Epoch time:      06131.73706102
Element set:     743
Inclination:      082.5259 deg
RA of node:       091.8912 deg
Eccentricity:    0.0025425
Arg of perigee:   120.4668 deg
Mean anomaly:     239.9064 deg
Mean motion:   14.81350263 rev/day
Decay rate:       4.77e-06 rev/day^2
Epoch rev:           57659
Checksum:              307

Satellite: NOAA-15
Catalog number: 25338
Epoch time:      06131.22010062
Element set:     507
Inclination:      098.5169 deg
RA of node:       134.6289 deg
Eccentricity:    0.0011453
Arg of perigee:   119.0140 deg
Mean anomaly:     241.2184 deg
Mean motion:   14.24577414 rev/day
Decay rate:        6.7e-07 rev/day^2
Epoch rev:           41545
Checksum:              268

Satellite: RESURS
Catalog number: 25394
Epoch time:      06131.18726756
Element set:     363
Inclination:      098.4926 deg
RA of node:       195.3210 deg
Eccentricity:    0.0000948
Arg of perigee:   321.8634 deg
Mean anomaly:     038.2478 deg
Mean motion:   14.24099557 rev/day
Decay rate:        1.9e-07 rev/day^2
Epoch rev:           40713
Checksum:              308

Satellite: FENGYUN1
Catalog number: 25730
Epoch time:      06130.84379667
Element set:     724
Inclination:      098.6242 deg
RA of node:       124.8057 deg
Eccentricity:    0.0013443
Arg of perigee:   247.5414 deg
Mean anomaly:     112.4322 deg
Mean motion:   14.11809135 rev/day
Decay rate:      -1.68e-06 rev/day^2
Epoch rev:           36074
Checksum:              284

Satellite: OKEAN-0
Catalog number: 25860
Epoch time:      06130.65501290
Element set:     743
Inclination:      097.7344 deg
RA of node:       146.7371 deg
Eccentricity:    0.0000586
Arg of perigee:   097.9516 deg
Mean anomaly:     262.1754 deg
Mean motion:   14.73360858 rev/day
Decay rate:       1.58e-06 rev/day^2
Epoch rev:           36622
Checksum:              307

Satellite: NOAA-16
Catalog number: 26536
Epoch time:      06131.37768966
Element set:     876
Inclination:      099.0635 deg
RA of node:       097.5677 deg
Eccentricity:    0.0009908
Arg of perigee:   220.8516 deg
Mean anomaly:     139.1919 deg
Mean motion:   14.12340096 rev/day
Decay rate:       3.12e-06 rev/day^2
Epoch rev:           29038
Checksum:              337

Satellite: NOAA-17
Catalog number: 27453
Epoch time:      06131.41717326
Element set:     897
Inclination:      098.6218 deg
RA of node:       204.3408 deg
Eccentricity:    0.0011884
Arg of perigee:   177.9331 deg
Mean anomaly:     182.1885 deg
Mean motion:   14.23775307 rev/day
Decay rate:        1.5e-07 rev/day^2
Epoch rev:           20154
Checksum:              304

Satellite: NOAA-18
Catalog number: 28654
Epoch time:      06131.47417693
Element set:     477
Inclination:      098.7863 deg
RA of node:       075.5381 deg
Eccentricity:    0.0014076
Arg of perigee:   329.3253 deg
Mean anomaly:     030.7104 deg
Mean motion:   14.10957144 rev/day
Decay rate:       2.89e-06 rev/day^2
Epoch rev:            5020
Checksum:              306

/EX
SB KEPS @ AMSAT  $ORB06131.M
Orbital Elements  06131.MISC

HR AMSAT ORBITAL ELEMENTS FOR MANNED AND MISCELLANEOUS SATELLITES
FROM WA5QGD FORT WORTH,TX May 11, 2006
Send SUBSCRIBE KEPS/UNSUBSCRIBE KEPS to majordomo@amsat.org only
BID: ORB06131.M
TO ALL RADIO AMATEURS BT

